Location: Unspecified
(0.0000°N, 0.0000°E)
Time: 04:59:10
(UTC+00:00)

deb Delta 104 - Pass Details

Date: 08 March 2026
Orbit: 1339 x 1584 km, 100.8° (Epoch: 15 April)

Event Time Altitude Azimuth Distance (km) Brightness Sun altitude
Exits shadow 19:50:12 12° 141° (SE) 3,581 ? -24.8°
Drops below altitude 10° 19:51:13 10° 147° (SSE) 3,780 ? -25.0°
Sets 19:55:17 0° 163° (SSE) 4,776 ? -26.1°
